User: anonymous   Login
Location: Unspecified
(53.9483°N, 0.0000°E)
Time: 03:07:06
(UTC+00:00)
Language:

Kosmos-1365 reactor core - Orbit

View from above orbital plane
View from above orbital plane
View from above satellite
View from above satellite

Ground track
Ground track

The orbit is defined by the following mean orbital elements,

1 13594U          26088.21454926 +.00000000 +00000-0 +64727-5 0 00003
2 13594  65.0684 157.0260 0048965   1.3957 358.7236 13.93197871    04
Epoch (UTC): 29 March 2026 05:08:57
Eccentricity: 0.0048965
inclination: 65.0684°
perigee height: 882 km
apogee height: 953 km
right ascension of ascending node: 157.0260°
argument of perigee: 1.3957°
revolutions per day: 13.93197871
mean anomaly at epoch: 358.7236°

The dashed part of the orbit path shows where the satellite is in the earth's shadow,  

DLR